EW8555 Weather Reports


time (UTC)temp
C
wind
direction
speed
KPH
gust
KPH
rain 1hr
cm
rain 24hr
cm
rain mn
cm
humidity
%
barometer
mb
20190424034640 12 147 6.4 19.3 0.00 0.00 0.00 76 1004.7
20190424033111 12 118 9.7 20.9 0.00 0.00 0.00 76 1004.6
20190424031647 12 154 4.8 14.5 0.00 0.00 0.00 75 1004.5
20190424030153 12 153 6.4 17.7 0.00 0.00 0.00 75 1004.6
20190424024614 12 116 6.4 19.3 0.00 0.00 0.00 75 1004.6
20190424023126 12 93 6.4 24.1 0.00 0.00 0.00 74 1004.6
20190424021643 12 128 8.0 24.1 0.00 0.00 0.00 74 1004.8
20190424020124 12 126 8.0 16.1 0.00 0.00 0.00 74 1004.9
20190424014601 12 147 11.3 22.5 0.00 0.00 0.00 73 1004.9
20190424013108 12 123 6.4 25.7 0.00 0.00 0.00 73 1004.9
20190424011608 12 143 11.3 27.4 0.00 0.00 0.00 73 1004.9
20190424010057 12 172 14.5 27.4 0.00 0.00 0.00 73 1005.0
20190424004606 12 119 14.5 27.4 0.00 0.00 0.00 72 1005.0
20190424003057 12 157 11.3 27.4 0.00 0.00 0.00 72 1005.0
20190424001553 12 131 12.9 32.2 0.00 0.00 0.00 72 1005.1
20190424000042 12 154 14.5 24.1 0.00 0.00 0.00 71 1005.2
20190423234628 12 138 12.9 30.6 0.00 0.00 0.00 70 1005.2
20190423233041 12 134 17.7 29.0 0.00 0.00 0.00 70 1005.3
20190423231606 13 134 19.3 33.8 0.00 0.00 0.00 70 1005.4
20190423230023 13 161 16.1 24.1 0.00 0.00 0.00 68 1005.4
20190423224527 13 144 22.5 30.6 0.00 0.00 0.00 67 1005.5
20190423223020 13 123 16.1 27.4 0.00 0.00 0.00 67 1005.5
20190423221515 13 148 16.1 32.2 0.00 0.00 0.00 66 1005.5
20190423220009 13 149 14.5 32.2 0.00 0.00 0.00 65 1005.6
20190423214512 13 135 14.5 29.0 0.00 0.00 0.00 64 1005.5
20190423213010 14 166 12.9 33.8 0.00 0.00 0.00 63 1005.5
20190423211505 14 161 20.9 30.6 0.00 0.00 0.00 62 1005.4
20190423210008 15 165 11.3 35.4 0.00 0.00 0.00 60 1005.2
20190423204502 15 213 14.5 35.4 0.00 0.00 0.00 59 1005.3
20190423203002 15 138 20.9 35.4 0.00 0.00 0.00 58 1005.4
20190423201505 15 145 17.7 38.6 0.00 0.00 0.00 56 1005.3
20190423200151 15 123 19.3 40.2 0.00 0.00 0.00 56 1005.2
20190423194648 15 155 19.3 45.1 0.00 0.00 0.00 55 1005.4
20190423193216 15 80 20.9 35.4 0.00 0.00 0.00 54 1005.4
20190423191720 15 153 16.1 27.4 0.00 0.00 0.00 54 1005.4
20190423190143 16 141 20.9 40.2 0.00 0.00 0.00 53 1005.4
20190423184740 16 164 16.1 35.4 0.00 0.00 0.00 53 1005.4
20190423183152 16 137 16.1 38.6 0.00 0.00 0.00 52 1005.2
20190423181637 16 145 17.7 48.3 0.00 0.00 0.00 51 1005.0
20190423180156 16 155 22.5 38.6 0.00 0.00 0.00 51 1004.9
20190423174712 17 109 19.3 37.0 0.00 0.00 0.00 50 1004.8
20190423173214 17 153 27.4 38.6 0.00 0.00 0.00 50 1004.7
20190423171702 17 168 20.9 37.0 0.00 0.00 0.00 52 1004.8
20190423170132 17 109 14.5 30.6 0.00 0.00 0.00 55 1004.6
20190423164646 16 109 14.5 30.6 0.00 0.00 0.00 54 1004.7
20190423163114 16 104 9.7 33.8 0.00 0.00 0.00 55 1004.9
20190423161801 16 90 12.9 29.0 0.00 0.00 0.00 54 1005.0
20190423160124 16 114 17.7 30.6 0.00 0.00 0.00 55 1005.1
20190423154609 16 113 14.5 25.7 0.00 0.00 0.00 54 1005.3
20190423153055 16 102 12.9 30.6 0.00 0.00 0.00 54 1005.5
20190423151615 16 151 14.5 32.2 0.00 0.00 0.00 53 1005.5
20190423150104 16 126 11.3 38.6 0.00 0.00 0.00 53 1005.7
20190423144648 17 126 11.3 35.4 0.00 0.00 0.00 51 1005.8
20190423143102 17 108 20.9 35.4 0.00 0.00 0.00 50 1005.8
20190423141622 17 141 14.5 37.0 0.00 0.00 0.00 49 1005.7
20190423140104 17 114 17.7 40.2 0.00 0.00 0.00 48 1005.7
20190423134658 18 154 24.1 41.8 0.00 0.00 0.00 46 1005.6
20190423133047 17 119 22.5 41.8 0.00 0.00 0.00 46 1005.8
20190423131619 18 126 19.3 45.1 0.00 0.00 0.00 45 1005.8
20190423130051 17 96 24.1 46.7 0.00 0.00 0.00 45 1006.0
20190423124546 17 57 22.5 38.6 0.00 0.00 0.00 45 1006.1
20190423123038 18 103 24.1 38.6 0.00 0.00 0.00 44 1006.3
20190423121610 18 60 24.1 43.5 0.00 0.00 0.00 44 1006.6
20190423120034 18 92 19.3 43.5 0.00 0.00 0.00 44 1006.5
20190423114614 17 115 24.1 43.5 0.00 0.00 0.00 45 1006.5
20190423113037 17 60 20.9 48.3 0.00 0.00 0.00 44 1006.6
20190423111551 17 70 17.7 51.5 0.00 0.00 0.00 45 1006.5
20190423110034 17 126 22.5 43.5 0.00 0.00 0.00 44 1006.7
20190423104533 17 116 19.3 40.2 0.00 0.00 0.00 45 1006.7
20190423103125 17 146 17.7 37.0 0.00 0.00 0.00 45 1006.8
20190423101606 16 136 19.3 48.3 0.00 0.00 0.00 45 1006.9
20190423100022 16 110 25.7 43.5 0.00 0.00 0.00 46 1007.1
20190423094547 16 132 24.1 40.2 0.00 0.00 0.00 46 1007.5
20190423093016 16 120 14.5 35.4 0.00 0.00 0.00 47 1007.7
20190423090001 15 51 17.7 35.4 0.00 0.00 0.00 47 1008.0
20190423084703 15 104 16.1 27.4 0.00 0.00 0.00 47 1008.4
20190423083235 14 133 14.5 43.5 0.00 0.00 0.00 49 1008.7
20190423081703 13 89 19.3 30.6 0.00 0.00 0.00 50 1008.8
20190423080109 13 112 12.9 40.2 0.00 0.00 0.00 51 1009.0
20190423074620 13 72 16.1 25.7 0.00 0.00 0.00 51 1009.1
20190423073106 12 80 12.9 29.0 0.00 0.00 0.00 52 1009.2
20190423071608 12 125 14.5 32.2 0.00 0.00 0.00 53 1009.4
20190423070242 11 85 16.1 27.4 0.00 0.00 0.00 53 1009.5
20190423064613 11 71 16.1 29.0 0.00 0.00 0.00 54 1009.7
20190423063133 11 85 17.7 32.2 0.00 0.00 0.00 54 1009.9
20190423061604 11 61 12.9 35.4 0.00 0.00 0.00 55 1010.0
20190423060114 10 84 12.9 30.6 0.00 0.00 0.00 56 1010.0
20190423054621 10 63 14.5 24.1 0.00 0.00 0.00 56 1010.1
20190423053117 10 123 11.3 32.2 0.00 0.00 0.00 58 1010.1
20190423051553 10 98 17.7 33.8 0.00 0.00 0.00 58 1010.1
20190423050103 10 65 11.3 24.1 0.00 0.00 0.00 58 1010.3
20190423044618 10 48 9.7 24.1 0.00 0.00 0.00 59 1010.3
20190423043041 10 96 11.3 24.1 0.00 0.00 0.00 59 1010.3
20190423041553 10 98 11.3 22.5 0.00 0.00 0.00 59 1010.4
20190423040038 10 82 11.3 19.3 0.00 0.00 0.00 59 1010.5